Glendive, MT

11:13 PM MST on February 20, 2017 (GMT -0700)
Dawson Community

Weather History for KGDV - January, 2016

Change the Weather History Date:

Sunday, January 10, 2016

  Actual Average Record
Temperature  
Mean Temperature 4 °F -  
Max Temperature 24 °F 21 °F 48 °F (2007)
Min Temperature -16 °F 4 °F -23 °F (1997)
Degree Days  
Heating Degree Days 61    
Moisture  
Dew Point 1 °F    
Average Humidity 81    
Maximum Humidity 100    
Minimum Humidity 58    
Precipitation  
Precipitation 0.00 in - - ()
Sea Level Pressure  
Sea Level Pressure 29.97 in    
Wind  
Wind Speed 6 mph (WSW)    
Max Wind Speed 21 mph    
Max Gust Speed 30 mph    
Visibility 10 miles    
Events      
Averages and records for this station are not official NWS values.
T = Trace of Precipitation, MM = Missing Value Source: NWS Daily Summary

Daily Weather History Graph

Daily Weather History Graph

Search for Another Location

Airport or City:

Trip Planner

Search our weather history database for the weather conditions in past years. The results will help you decide how hot, cold, wet, or windy it might be!

Date:

Astronomy

Jan. 10, 2016 Rise Set
Actual Time 7:43 AM MST 4:29 PM MST
Civil Twilight 7:09 AM MST 5:04 PM MST
Nautical Twilight 6:30 AM MST 5:42 PM MST
Astronomical Twilight 5:53 AM MST 6:19 PM MST
Moon 7:48 AM MST (1/10) 5:42 PM MST (1/10)
Length of Visible Light 9h 55m
Length of Day
8h 45m
New Moon, 1% of the Moon is Illuminated
Jan 10
New Moon
Jan 16
First Quarter
Jan 23
Full
Jan 31
Last Quarter
Feb 8
New

Hourly Weather History & Observations

Time (MST) Temp. Windchill Dew Point Humidity Pressure Visibility Wind Dir Wind Speed Gust Speed Precip Events Conditions
12:15 AM -11.2 °F -23.0 °F -14.8 °F 84% 30.07 in 10.0 mi South 4.6 mph - N/A   Clear
12:35 AM -11.2 °F -26.4 °F -16.6 °F 77% 30.07 in 10.0 mi South 6.9 mph - N/A   Clear
12:55 AM -11.2 °F -24.8 °F -14.8 °F 84% 30.06 in 10.0 mi South 5.8 mph - N/A   Clear
1:15 AM -11.2 °F - -14.8 °F 84% 30.06 in 10.0 mi Calm Calm - N/A   Clear
1:35 AM -13.0 °F - -20.2 °F 70% 30.06 in 10.0 mi Calm Calm - N/A   Clear
1:55 AM -14.8 °F - -16.6 °F 92% 30.06 in 10.0 mi Calm Calm - N/A   Clear
2:15 AM -14.8 °F - -16.6 °F 92% 30.05 in 10.0 mi Calm Calm - N/A   Clear
2:35 AM -14.8 °F - -16.6 °F 92% 30.06 in 10.0 mi Calm Calm - N/A   Clear
2:55 AM -14.8 °F - -18.4 °F 84% 30.05 in 10.0 mi Calm Calm - N/A   Clear
3:15 AM -13.0 °F -22.7 °F -16.6 °F 84% 30.05 in 10.0 mi SSW 3.5 mph - N/A   Clear
3:35 AM -14.8 °F -24.8 °F -16.6 °F 92% 30.04 in 10.0 mi SW 3.5 mph - N/A   Clear
3:55 AM -14.8 °F - -20.2 °F 77% 30.03 in 10.0 mi Calm Calm - N/A   Clear
4:15 AM -11.2 °F -20.6 °F -11.2 °F 100% 30.02 in 10.0 mi SSE 3.5 mph - N/A   Clear
4:35 AM -14.8 °F -24.8 °F -25.6 °F 58% 30.02 in 10.0 mi South 3.5 mph - N/A   Clear
4:55 AM -16.6 °F -26.8 °F -18.4 °F 92% 30.01 in 10.0 mi SSW 3.5 mph - N/A   Clear
5:15 AM -14.8 °F - -18.4 °F 84% 30.01 in 10.0 mi Calm Calm - N/A   Clear
5:35 AM -13.0 °F -27.0 °F -16.6 °F 84% 30.00 in 10.0 mi South 5.8 mph - N/A   Clear
5:55 AM -13.0 °F -27.0 °F -16.6 °F 84% 30.00 in 10.0 mi South 5.8 mph - N/A   Clear
6:15 AM -13.0 °F -28.6 °F -16.6 °F 84% 30.00 in 10.0 mi SSW 6.9 mph - N/A   Clear
6:35 AM -11.2 °F -24.8 °F -16.6 °F 77% 30.00 in 10.0 mi SSW 5.8 mph - N/A   Clear
6:55 AM -11.2 °F -26.4 °F -11.2 °F 100% 30.00 in 10.0 mi SW 6.9 mph - N/A   Clear
7:15 AM -9.4 °F -24.3 °F -14.8 °F 77% 30.00 in 10.0 mi WSW 6.9 mph - N/A   Partly Cloudy
7:35 AM -7.6 °F -22.1 °F -7.6 °F 100% 29.99 in 10.0 mi SW 6.9 mph - N/A   Partly Cloudy
7:55 AM -7.6 °F -18.8 °F -11.2 °F 84% 29.99 in 10.0 mi SSW 4.6 mph - N/A   Partly Cloudy
8:15 AM -7.6 °F - -7.6 °F 100% 29.99 in 10.0 mi Calm Calm - N/A   Scattered Clouds
8:35 AM -7.6 °F -16.5 °F -14.8 °F 71% 29.99 in 10.0 mi SE 3.5 mph - N/A   Partly Cloudy
8:55 AM -7.6 °F -18.8 °F -7.6 °F 100% 29.99 in 10.0 mi South 4.6 mph - N/A   Clear
9:15 AM -5.8 °F -14.5 °F -11.2 °F 77% 29.99 in 10.0 mi South 3.5 mph - N/A   Clear
9:35 AM -5.8 °F -16.7 °F -5.8 °F 100% 29.99 in 10.0 mi SSW 4.6 mph - N/A   Clear
9:55 AM -0.4 °F - -0.4 °F 100% 30.00 in 10.0 mi Calm Calm - N/A   Clear
10:15 AM 1.4 °F -6.2 °F -4.0 °F 78% 30.00 in 10.0 mi South 3.5 mph - N/A   Clear
10:35 AM 3.2 °F -7.8 °F 1.4 °F 92% 30.00 in 10.0 mi SSW 5.8 mph - N/A   Clear
10:55 AM 6.8 °F -3.5 °F 6.8 °F 100% 29.99 in 10.0 mi SSW 5.8 mph - N/A   Clear
11:15 AM 8.6 °F 2.0 °F 6.8 °F 92% 29.99 in 10.0 mi SSE 3.5 mph - N/A   Clear
11:35 AM 10.4 °F - 8.6 °F 92% 29.99 in 10.0 mi Calm Calm - N/A   Clear
11:55 AM 14.0 °F 5.1 °F 12.2 °F 93% 29.98 in 10.0 mi NNW 5.8 mph - N/A   Clear
12:15 PM 15.8 °F 2.1 °F 14.0 °F 93% 29.98 in 10.0 mi WNW 12.7 mph - N/A   Clear
12:35 PM 17.6 °F 4.3 °F 8.6 °F 68% 29.97 in 10.0 mi WNW 12.7 mph - N/A   Clear
12:55 PM 15.8 °F 1.4 °F 10.4 °F 79% 29.96 in 10.0 mi WNW 13.8 mph 18.4 mph N/A   Clear
1:15 PM 17.6 °F 5.0 °F 10.4 °F 73% 29.95 in 10.0 mi WNW 11.5 mph - N/A   Clear
1:35 PM 15.8 °F 0.3 °F 8.6 °F 73% 29.96 in 10.0 mi West 16.1 mph 19.6 mph N/A   Clear
1:55 PM 15.8 °F -0.6 °F 8.6 °F 73% 29.94 in 10.0 mi West 18.4 mph - N/A   Clear
2:15 PM 15.8 °F 0.3 °F 8.6 °F 73% 29.94 in 10.0 mi West 16.1 mph - N/A   Partly Cloudy
2:35 PM 17.6 °F 3.7 °F 8.6 °F 68% 29.94 in 10.0 mi West 13.8 mph - N/A   Mostly Cloudy
2:55 PM 17.6 °F 4.3 °F 8.6 °F 68% 29.93 in 10.0 mi West 12.7 mph - N/A   Mostly Cloudy
3:15 PM 17.6 °F 4.3 °F 8.6 °F 68% 29.93 in 10.0 mi West 12.7 mph - N/A   Overcast
3:35 PM 17.6 °F 6.4 °F 10.4 °F 73% 29.93 in 10.0 mi West 9.2 mph - N/A   Overcast
3:55 PM 17.6 °F 5.7 °F 10.4 °F 73% 29.93 in 10.0 mi West 10.4 mph - N/A   Overcast
4:15 PM 19.4 °F 9.5 °F 10.4 °F 68% 29.93 in 10.0 mi WSW 8.1 mph - N/A   Mostly Cloudy
4:35 PM 19.4 °F 10.4 °F 12.2 °F 74% 29.92 in 10.0 mi SW 6.9 mph - N/A   Overcast
4:55 PM 19.4 °F 8.6 °F 12.2 °F 74% 29.91 in 10.0 mi WSW 9.2 mph - N/A   Overcast
5:15 PM 19.4 °F 8.6 °F 12.2 °F 74% 29.91 in 10.0 mi WSW 9.2 mph - N/A   Overcast
5:35 PM 19.4 °F 10.4 °F 12.2 °F 74% 29.90 in 10.0 mi WSW 6.9 mph - N/A   Overcast
5:55 PM 19.4 °F 10.4 °F 12.2 °F 74% 29.90 in 10.0 mi SW 6.9 mph - N/A   Overcast
6:15 PM 23.0 °F 10.6 °F 14.0 °F 68% 29.90 in 10.0 mi West 13.8 mph - N/A   Overcast
6:35 PM 24.8 °F 12.4 °F 15.8 °F 69% 29.90 in 10.0 mi West 15.0 mph 18.4 mph N/A   Overcast
6:55 PM 24.8 °F 11.1 °F 15.8 °F 69% 29.90 in 10.0 mi WNW 18.4 mph 25.3 mph N/A   Overcast
7:15 PM 24.8 °F 11.1 °F 15.8 °F 69% 29.91 in 10.0 mi WNW 18.4 mph 23.0 mph N/A   Overcast
7:35 PM 24.8 °F 11.1 °F 15.8 °F 69% 29.91 in 10.0 mi West 18.4 mph - N/A   Mostly Cloudy
7:55 PM 23.0 °F 10.1 °F 15.8 °F 74% 29.91 in 10.0 mi WNW 15.0 mph 20.7 mph N/A   Mostly Cloudy
8:15 PM 24.8 °F 12.9 °F 17.6 °F 74% 29.91 in 10.0 mi WNW 13.8 mph - N/A   Overcast
8:35 PM 24.8 °F 13.4 °F 17.6 °F 74% 29.91 in 10.0 mi NW 12.7 mph 20.7 mph N/A   Overcast
8:55 PM 24.8 °F 13.4 °F 17.6 °F 74% 29.91 in 10.0 mi NW 12.7 mph 18.4 mph N/A   Overcast
9:15 PM 24.8 °F 14.0 °F 17.6 °F 74% 29.92 in 10.0 mi NW 11.5 mph 18.4 mph N/A   Overcast
9:35 PM 24.8 °F 14.6 °F 17.6 °F 74% 29.92 in 10.0 mi WNW 10.4 mph - N/A   Overcast
9:55 PM 24.8 °F 11.9 °F 19.4 °F 80% 29.92 in 10.0 mi NW 16.1 mph 23.0 mph N/A   Overcast
10:15 PM 24.8 °F 10.3 °F 19.4 °F 80% 29.92 in 10.0 mi NW 20.7 mph 29.9 mph N/A   Overcast
10:35 PM 24.8 °F 11.1 °F 19.4 °F 80% 29.93 in 10.0 mi NW 18.4 mph 25.3 mph N/A   Overcast
10:55 PM 24.8 °F 11.1 °F 19.4 °F 80% 29.93 in 10.0 mi NW 18.4 mph - N/A   Overcast
11:15 PM 24.8 °F 11.1 °F 21.2 °F 86% 29.93 in 10.0 mi NW 18.4 mph 26.5 mph N/A   Overcast
11:35 PM 24.8 °F 11.1 °F 19.4 °F 80% 29.93 in 10.0 mi NW 18.4 mph 26.5 mph N/A   Overcast
11:55 PM 24.8 °F 11.5 °F 19.4 °F 80% 29.94 in 10.0 mi NW 17.3 mph 25.3 mph N/A   Overcast